| time (UTC) | temp F | wind direction | speed MPH | gust MPH | rain 1hr in | rain 24hr in | rain mn in | humidity % | barometer mb |
| 20260510191516 | 67 | 228 | 2.0 | 7.0 | 0.00 | 0.34 | 0.00 | 72 | 1012.7 |
| 20260510190014 | 66 | 255 | 3.0 | 8.0 | 0.00 | 0.36 | 0.00 | 70 | 1012.8 |
| 20260510184517 | 66 | 235 | 4.0 | 11.0 | 0.00 | 0.39 | 0.00 | 69 | 1012.9 |
| 20260510183030 | 66 | 268 | 2.0 | 8.0 | 0.00 | 0.42 | 0.00 | 71 | 1012.8 |
| 20260510181515 | 66 | 219 | 5.0 | 9.0 | 0.00 | 0.42 | 0.00 | 69 | 1012.8 |
| 20260510180013 | 67 | 197 | 2.0 | 9.0 | 0.00 | 0.42 | 0.00 | 71 | 1012.8 |
| 20260510174513 | 67 | 257 | 4.0 | 15.0 | 0.00 | 0.42 | 0.00 | 68 | 1012.9 |
| 20260510173016 | 67 | 238 | 2.0 | 9.0 | 0.00 | 0.42 | 0.00 | 72 | 1013.0 |
| 20260510171518 | 65 | 179 | 1.0 | 5.0 | 0.00 | 0.42 | 0.00 | 74 | 1012.8 |
| 20260510170016 | 65 | 191 | 1.0 | 8.0 | 0.00 | 0.42 | 0.00 | 72 | 1012.8 |
| 20260510164529 | 65 | 194 | 3.0 | 7.0 | 0.00 | 0.42 | 0.00 | 75 | 1012.7 |
| 20260510163020 | 65 | 226 | 3.0 | 10.0 | 0.00 | 0.42 | 0.00 | 76 | 1013.1 |
| 20260510161516 | 64 | 238 | 2.0 | 9.0 | 0.00 | 0.42 | 0.00 | 77 | 1013.0 |
| 20260510160025 | 63 | 293 | 2.0 | 7.0 | 0.00 | 0.42 | 0.00 | 83 | 1013.0 |
| 20260510154518 | 63 | 196 | 0.0 | 4.0 | 0.00 | 0.42 | 0.00 | 82 | 1012.9 |
| 20260510153023 | 61 | 191 | 1.0 | 8.0 | 0.00 | 0.42 | 0.00 | 84 | 1013.1 |
| 20260510151517 | 61 | 196 | 1.0 | 4.0 | 0.00 | 0.42 | 0.00 | 85 | 1013.3 |
| 20260510150019 | 60 | 210 | 1.0 | 5.0 | 0.00 | 0.42 | 0.00 | 85 | 1013.3 |
| 20260510144523 | 59 | 202 | 0.0 | 4.0 | 0.00 | 0.42 | 0.00 | 90 | 1013.2 |
| 20260510143016 | 58 | 220 | 2.0 | 6.0 | 0.00 | 0.42 | 0.00 | 88 | 1013.0 |
| 20260510141518 | 57 | 236 | 0.0 | 2.0 | 0.00 | 0.42 | 0.00 | 93 | 1012.9 |
| 20260510140021 | 56 | 226 | 0.0 | 2.0 | 0.00 | 0.42 | 0.00 | 93 | 1013.1 |
| 20260510134520 | 55 | 21 | 0.0 | 2.0 | 0.00 | 0.42 | 0.00 | 95 | 1012.9 |
| 20260510133019 | 54 | 271 | 0.0 | 0.0 | 0.00 | 0.42 | 0.00 | 95 | 1012.9 |
| 20260510131520 | 53 | 271 | 0.0 | 2.0 | 0.00 | 0.42 | 0.00 | 95 | 1012.7 |
| 20260510130027 | 53 | 193 | 0.0 | 0.0 | 0.00 | 0.42 | 0.00 | 95 | 1012.6 |
| 20260510124518 | 52 | 193 | 0.0 | 0.0 | 0.00 | 0.42 | 0.00 | 95 | 1012.7 |
| 20260510123015 | 52 | 193 | 0.0 | 2.0 | 0.00 | 0.42 | 0.00 | 95 | 1012.4 |
| 20260510121509 | 52 | 147 | 0.0 | 0.0 | 0.00 | 0.42 | 0.00 | 95 | 1012.4 |
| 20260510120008 | 52 | 147 | 0.0 | 1.0 | 0.00 | 0.42 | 0.00 | 96 | 1012.2 |
| 20260510114512 | 52 | 149 | 0.0 | 0.0 | 0.00 | 0.42 | 0.00 | 96 | 1012.1 |
| 20260510113029 | 51 | 149 | 0.0 | 0.0 | 0.00 | 0.42 | 0.00 | 95 | 1012.1 |
| 20260510111531 | 51 | 149 | 0.0 | 0.0 | 0.00 | 0.42 | 0.00 | 95 | 1011.7 |
| 20260510110016 | 51 | 323 | 0.0 | 1.0 | 0.00 | 0.42 | 0.00 | 95 | 1011.7 |
| 20260510104518 | 51 | 253 | 0.0 | 0.0 | 0.00 | 0.42 | 0.00 | 95 | 1011.8 |
| 20260510103010 | 50 | 151 | 0.0 | 2.0 | 0.00 | 0.42 | 0.00 | 95 | 1011.4 |
| 20260510101508 | 50 | 223 | 0.0 | 2.0 | 0.00 | 0.42 | 0.00 | 95 | 1011.3 |
| 20260510100007 | 50 | 195 | 0.0 | 0.0 | 0.00 | 0.42 | 0.00 | 95 | 1011.5 |
| 20260510094523 | 50 | 220 | 0.0 | 0.0 | 0.00 | 0.42 | 0.00 | 95 | 1011.5 |
| 20260510093022 | 50 | 169 | 0.0 | 1.0 | 0.00 | 0.42 | 0.00 | 95 | 1011.5 |
| 20260510091541 | 50 | 249 | 0.0 | 0.0 | 0.00 | 0.43 | 0.00 | 95 | 1011.7 |
| 20260510090015 | 50 | 249 | 0.0 | 1.0 | 0.00 | 0.43 | 0.00 | 95 | 1011.8 |
| 20260510084512 | 51 | 248 | 0.0 | 0.0 | 0.00 | 0.43 | 0.00 | 95 | 1011.8 |
| 20260510083008 | 51 | 249 | 0.0 | 1.0 | 0.00 | 0.43 | 0.00 | 95 | 1012.0 |
| 20260510081533 | 51 | 289 | 0.0 | 4.0 | 0.00 | 0.43 | 0.00 | 95 | 1011.9 |
| 20260510080024 | 51 | 297 | 1.0 | 3.0 | 0.00 | 0.43 | 0.00 | 95 | 1011.7 |
| 20260510074522 | 50 | 313 | 2.0 | 3.0 | 0.00 | 0.44 | 0.00 | 95 | 1011.7 |
| 20260510073032 | 50 | 203 | 0.0 | 2.0 | 0.00 | 0.45 | 0.00 | 95 | 1011.3 |
| 20260510071517 | 51 | 250 | 0.0 | 0.0 | 0.00 | 0.45 | 0.00 | 95 | 1011.3 |
| 20260510070021 | 50 | 295 | 0.0 | 1.0 | 0.00 | 0.45 | 0.00 | 95 | 1011.4 |
| 20260510064547 | 51 | 214 | 0.0 | 2.0 | 0.00 | 0.45 | 0.00 | 95 | 1011.5 |
| 20260510063033 | 51 | 243 | 0.0 | 2.0 | 0.00 | 0.45 | 0.00 | 95 | 1011.6 |
| 20260510061535 | 51 | 243 | 0.0 | 0.0 | 0.00 | 0.45 | 0.00 | 95 | 1011.5 |
| 20260510060031 | 51 | 243 | 0.0 | 0.0 | 0.00 | 0.45 | 0.00 | 95 | 1011.1 |
| 20260510054520 | 50 | 243 | 0.0 | 0.0 | 0.00 | 0.45 | 0.00 | 95 | 1011.0 |
| 20260510053016 | 50 | 243 | 0.0 | 0.0 | 0.00 | 0.45 | 0.00 | 95 | 1011.2 |
| 20260510051512 | 50 | 243 | 0.0 | 2.0 | 0.00 | 0.45 | 0.00 | 94 | 1011.4 |
| 20260510050012 | 51 | 254 | 0.0 | 2.0 | 0.00 | 0.45 | 0.00 | 94 | 1011.5 |
| 20260510044509 | 51 | 284 | 0.0 | 3.0 | 0.00 | 0.45 | 0.00 | 94 | 1011.3 |
| 20260510043024 | 51 | 293 | 0.0 | 3.0 | 0.00 | 0.45 | 0.00 | 94 | 1011.3 |
| 20260510041524 | 51 | 276 | 0.0 | 1.0 | 0.00 | 0.45 | 0.00 | 95 | 1011.0 |
| 20260510040022 | 52 | 232 | 0.0 | 0.0 | 0.00 | 0.45 | 0.00 | 94 | 1011.1 |
| 20260510034516 | 52 | 232 | 0.0 | 0.0 | 0.00 | 0.45 | 0.45 | 94 | 1010.8 |
| 20260510033014 | 52 | 232 | 0.0 | 0.0 | 0.00 | 0.45 | 0.45 | 94 | 1011.0 |
| 20260510031510 | 52 | 232 | 0.0 | 1.0 | 0.00 | 0.45 | 0.45 | 94 | 1011.1 |
| 20260510030007 | 52 | 232 | 0.0 | 0.0 | 0.00 | 0.45 | 0.45 | 94 | 1011.2 |
| 20260510024532 | 52 | 232 | 0.0 | 0.0 | 0.00 | 0.45 | 0.45 | 94 | 1011.2 |
| 20260510023024 | 52 | 232 | 0.0 | 2.0 | 0.00 | 0.45 | 0.45 | 94 | 1011.2 |
| 20260510021520 | 52 | 232 | 0.0 | 0.0 | 0.00 | 0.45 | 0.45 | 95 | 1011.0 |
| 20260510020018 | 51 | 105 | 0.0 | 0.0 | 0.00 | 0.45 | 0.45 | 94 | 1010.9 |
| 20260510014523 | 51 | 215 | 0.0 | 0.0 | 0.00 | 0.45 | 0.45 | 94 | 1010.9 |
| 20260510013018 | 51 | 215 | 0.0 | 0.0 | 0.00 | 0.45 | 0.45 | 93 | 1010.9 |
| 20260510011527 | 51 | 215 | 0.0 | 0.0 | 0.00 | 0.45 | 0.45 | 93 | 1010.9 |
| 20260510010027 | 51 | 215 | 0.0 | 2.0 | 0.00 | 0.45 | 0.45 | 93 | 1010.4 |
| 20260510004524 | 52 | 249 | 0.0 | 0.0 | 0.00 | 0.45 | 0.45 | 93 | 1010.4 |
| 20260510003022 | 52 | 249 | 0.0 | 2.0 | 0.00 | 0.45 | 0.45 | 93 | 1010.4 |
| 20260510001520 | 53 | 156 | 0.0 | 0.0 | 0.00 | 0.45 | 0.45 | 93 | 1010.2 |
| 20260510000014 | 53 | 156 | 0.0 | 1.0 | 0.00 | 0.45 | 0.45 | 93 | 1010.1 |
| 20260509234524 | 54 | 181 | 0.0 | 0.0 | 0.01 | 0.45 | 0.45 | 93 | 1010.2 |
| 20260509233035 | 54 | 181 | 0.0 | 2.0 | 0.01 | 0.45 | 0.45 | 93 | 1010.4 |
| 20260509231527 | 54 | 185 | 0.0 | 0.0 | 0.04 | 0.45 | 0.45 | 94 | 1010.4 |
| 20260509230022 | 54 | 101 | 0.0 | 0.0 | 0.08 | 0.45 | 0.45 | 93 | 1010.6 |
| 20260509224519 | 53 | 101 | 0.0 | 0.0 | 0.13 | 0.44 | 0.44 | 93 | 1010.6 |
| 20260509223018 | 53 | 101 | 0.0 | 2.0 | 0.17 | 0.44 | 0.44 | 93 | 1010.6 |
| 20260509221512 | 53 | 162 | 0.0 | 2.0 | 0.17 | 0.41 | 0.41 | 92 | 1010.8 |
| 20260509220028 | 53 | 224 | 0.0 | 2.0 | 0.15 | 0.37 | 0.37 | 92 | 1011.2 |
| 20260509214526 | 53 | 223 | 0.0 | 2.0 | 0.11 | 0.31 | 0.31 | 91 | 1011.1 |
| 20260509213027 | 54 | 216 | 1.0 | 5.0 | 0.08 | 0.27 | 0.27 | 91 | 1011.3 |
| 20260509211525 | 54 | 305 | 1.0 | 3.0 | 0.05 | 0.24 | 0.24 | 92 | 1011.3 |
| 20260509210026 | 55 | 184 | 0.0 | 2.0 | 0.04 | 0.22 | 0.22 | 92 | 1011.2 |
| 20260509204517 | 55 | 211 | 0.0 | 2.0 | 0.03 | 0.20 | 0.20 | 91 | 1011.2 |
| 20260509203034 | 55 | 289 | 0.0 | 2.0 | 0.04 | 0.19 | 0.19 | 91 | 1011.0 |
| 20260509201528 | 55 | 289 | 0.0 | 3.0 | 0.08 | 0.19 | 0.19 | 90 | 1011.0 |
| 20260509200026 | 55 | 240 | 1.0 | 2.0 | 0.09 | 0.18 | 0.18 | 91 | 1011.2 |
| 20260509194506 | 55 | 295 | 2.0 | 6.0 | 0.11 | 0.17 | 0.17 | 90 | 1011.3 |
| 20260509193004 | 56 | 279 | 2.0 | 6.0 | 0.12 | 0.15 | 0.15 | 91 | 1011.6 |